Regional Weather Roundup
Issued by NWS

Home | Current Version | Previous Version | Graphics & Text | Print | Product List | Glossary On
Versions: 1 2 3 4 5 6 7 8 9 10 11 12 13 14 15 16 17 18 19 20 21 22 23 24 25 26 27 28 29 30 31 32 33 34 35 36 37 38 39 40 41 42 43 44 45 46 47 48 49 50
000
ASUS43 KLSX 290259
RWRMO

WEATHER SUMMARY FOR MISSOURI
NATIONAL WEATHER SERVICE SPRINGFIELD MO
1000 PM CDT THU MAY 28 2015

NOTE: "FAIR" INDICATES FEW OR NO CLOUDS BELOW 12,000 FEET WITH NO
       SIGNIFICANT WEATHER AND/OR OBSTRUCTIONS TO VISIBILITY.
       CURRENT SKY AND/OR WEATHER CONDITIONS ARE NOT AVAILABLE FOR
       CHILLICOTHE AND FARMINGTON.

MOZ001>031-035>038-043-044-053-054-290400-
...NORTHERN AND WESTERN MISSOURI...

CITY           SKY/WX    TMP DP  RH WIND       PRES   REMARKS
KANSAS CTY INT CLOUDY    68  66  93 SE12      29.98F
KANSAS C DTWN  MOCLDY    70  65  84 E7        29.98S
LEE`S SUMMIT   MOCLDY    67  65  93 SE7       30.00S
ST JOSEPH      CLOUDY    68  64  87 SE8       29.98R
CHILLICOTHE      N/A     68  65  90 SE6       30.03R
KIRKSVILLE     LGT RAIN  65  65 100 SE7       30.03S

$$
MOZ066>068-077>081-088>096-101>105-290400-
...SOUTHWEST MISSOURI...

CITY           SKY/WX    TMP DP  RH WIND       PRES   REMARKS
SPRINGFIELD    PTCLDY    70  65  84 S9        30.01R
JOPLIN         CLOUDY    68  65  90 CALM      30.01R

$$
MOZ032>034-039>042-045>050-055>058-069>072-290400-
...CENTRAL MISSOURI...

CITY           SKY/WX    TMP DP  RH WIND       PRES   REMARKS
COLUMBIA       CLOUDY    67  65  93 NE6       30.02R
JEFFERSON CITY CLOUDY    69  65  86 E5        30.01R
ROLLA          CLOUDY    71  65  81 SE9       30.02R
SEDALIA        CLOUDY    68  65  90 E5        30.02R
OSAGE BEACH    CLOUDY    66  63  88 CALM      30.01S

$$
MOZ051-052-059>065-290400-
...EAST CENTRAL MISSOURI...

CITY           SKY/WX    TMP DP  RH WIND       PRES   REMARKS
ST LOUIS INTL  MOCLDY    77  64  64 SE10      30.04F
SPIRIT OF STL  MOCLDY   N/A N/A N/A SE5       30.02S
ST CHARLES     MOCLDY    72  66  81 SE6       30.02S

$$
MOZ072>076-082>087-097>100-106>115-290400-
...SOUTH CENTRAL AND SOUTHEAST MISSOURI...

CITY           SKY/WX    TMP DP  RH WIND       PRES   REMARKS
CAPE GIRARDEAU PTCLDY    70  65  84 SE5       30.07S
FARMINGTON     MOCLDY    70  64  83 S7        30.10S
POPLAR BLUFF   PTCLDY    73  66  78 SE6       30.05R
WEST PLAINS    CLOUDY    71  61  70 S7        30.07R

$$


USA.gov is the U.S. government's official web portal to all federal, state and local government web resources and services.